STARLINK-2480, 48137

Orbit data source: Space-Track

STARLINK-2480, 48137 is a payload satellite owned by SpaceX/Seattle (US) in LEO that was launched on Wed, 07 Apr 2021 UTC via an FALCON 9 launch vehicle from the Air Force Eastern Test Range (AFETR). Payload-class satellites include a variety of spacecraft equipped with specific instruments for various scientific and technological missions. These include communications satellites like Starlink; space stations such as the ISS; scientific satellites like the Hubble; Earth observation satellites from companies like Planet Labs, Umbra, and HawkEye 360; GPS; miniature CubeSats for education and research; and military/defense satellites.

Loading next visibility...
Identifier
48137, 2021-027AX
Orbit
LEO
Country
Flag of USUS
Related business
Manufacturer
SpaceX/Seattle
Mission
Operational Commercial Communications
Bus & Motor
STARLINK, Unknown motor
Mass
260 kg wet, ~248 kg dry
Launch date (UTC)
2021-04-07 (5 years ago)
Launch vehicle
FALCON 9
Launch site
Air Force Eastern Test Range (AFETR)
Object type
Payload
Rocket body
Debris
Shape & HBR
Box + 1 Pan, 10.1 m
Radar Cross Section
13.562 m², Large (>1 m²)

Expand to show TLE details & history
Last TLE update: 2 days ago

TLE from 2 days ago
0 STARLINK-2480
1 48137U 21027AX  26171.33822226  .00000888  00000-0  40368-4 0  9999
2 48137  53.1619  37.8031 0001164  77.9773 282.1359 15.31704305288360
Epoch: 2026-06-20T08:07Z
TLE epoch observation values (Epoch: 2026-06-20T08:07:02.403Z)
Latitude
Longitude
7.48881°
Altitude
471.46 km
Speed
7.632 km/s
True Right ascension
02h 31m 12s
True Declination
0° 00' 00"
Sunlit
Object was in daylight at epoch
Visualization orbit readout
Latitude
Unknown
Longitude
Unknown
Altitude
Unknown
Speed
Unknown
Apparent Right ascension
Unknown
Apparent Declination
Unknown
Sunlit
N/A
Visualization observer readout
Local Sidereal Time
21:27:04
Azimuth
Unknown
Elevation
Unknown
Doppler factor
Unknown
Orbital elements
Apogee altitude
471.781 km
Perigee altitude
470.186 km
Semi-major axis
6,849.12 km
Eccentricity
0.00012
Inclination
53.1619°
RAAN
37.8031°
Arg. of periapsis
77.9773°
True anomaly
282.12286°
Mean anomaly
282.1359°
Eccentric anomaly
282.12938°
Mean motion
3.82905 °/min
Orbital period
94.02 mins
BSTAR
0.000040368
Loading maneuver chart data...
Computing Atmospheric mass density...

Documentation

Showing up to 5 results
|